[[{"header":{"parameterUnit":"m.s-1","parameterCategory":1,"la1":30.2991,"la2":30.254,"lo1":-89.0895,"lo2":-89.0444,"dy":0.0017,"dx":0.0017,"nx":28,"ny":28,"refTime":"2024-06-13T03:00:00:Z","depth":0,"parameterNumber":2,"parameterNumberName":"U-component_of_WINDS"},"data":[0,0,0,0,0,0,0,0,0,0,0,0,0,0,0,0,0,0,0,0,0,0,0,0,0,0,0,0,0,0,0,0,0,0,0,0,0,0,0,0,0,0,0,0,0,0,0,0,0,0,0,0,0,0,0,0,0,0,-0.4789,-0.4789,0,-0.4718,-0.4717,-0.4716,-0.4647,-0.4646,-0.4645,-0.4644,-0.4569,-0.4568,-0.4567,0,0,0,0,0,0,0,0,0,0,0,0,0,-0.4865,-0.4864,-0.4789,-0.4788,-0.4788,-0.4718,-0.4717,-0.4716,-0.4647,-0.4646,-0.4645,-0.4644,-0.4569,-0.4568,-0.4567,0,0,0,0,0,0,0,0,0,0,0,0,0,-0.4817,-0.4863,-0.4789,-0.4745,-0.474,-0.4718,-0.4717,-0.4716,-0.4647,-0.4646,-0.4645,-0.4643,-0.457,-0.4568,-0.4566,-0.4583,0,0,-0.4561,-0.456,0,0,0,0,0,0,0,0,-0.4819,-0.4814,-0.4752,-0.4748,-0.4742,-0.469,-0.4716,-0.4671,-0.4648,-0.4682,-0.4644,-0.4643,-0.461,-0.4605,-0.4595,-0.4579,-0.4576,-0.4561,-0.456,-0.4559,-0.4559,0,0,0,0,0,0,0,-0.4823,-0.4816,-0.4761,-0.4751,-0.4745,-0.4728,-0.472,-0.4707,-0.4655,-0.4679,-0.4674,-0.4667,-0.4607,-0.4596,-0.4592,-0.4575,-0.4561,-0.4559,-0.4558,-0.4558,-0.4571,-0.4572,0,0,0,0,0,0,-0.4833,-0.482,-0.4763,-0.4759,-0.4778,-0.4728,-0.4718,-0.4708,-0.4655,-0.4645,-0.4668,-0.4664,-0.46,-0.4594,-0.4589,-0.4606,-0.4559,-0.4557,-0.4556,-0.4569,-0.4571,-0.4572,0,0,0,0,0,0,-0.4835,-0.4829,-0.4766,-0.4788,-0.4779,-0.4728,-0.4717,-0.4707,-0.4697,-0.4646,-0.4636,-0.4667,-0.4599,-0.4592,-0.4585,-0.4602,-0.4557,-0.4555,-0.4568,-0.457,-0.4572,-0.4639,0,0,0,0,0,0,-0.4837,-0.483,-0.4836,-0.4789,-0.4778,-0.4764,-0.4718,-0.4707,-0.4694,-0.4688,-0.4642,-0.4633,-0.4597,-0.4588,-0.4584,-0.4599,-0.4554,-0.4566,-0.4569,-0.4571,-0.4635,-0.4643,-0.465,0,0,0,0,0,-0.484,-0.4856,-0.4836,-0.483,-0.4784,-0.4765,-0.4759,-0.4717,-0.4696,-0.4701,-0.4669,-0.4635,-0.4601,-0.4588,-0.4582,-0.4598,-0.4565,-0.4568,-0.4571,-0.4632,-0.4641,-0.465,0,0,0,0,0,0,-0.4906,-0.4849,-0.4826,-0.4828,-0.4802,-0.4753,-0.4759,-0.4729,-0.4708,-0.4703,-0.4652,-0.4642,-0.4642,-0.4619,-0.4605,-0.4611,-0.4578,-0.458,-0.4627,-0.4635,-0.4643,-0.4649,-0.4552,0,0,0,0,0,-0.492,-0.491,-0.4861,-0.4867,-0.4856,-0.481,-0.48,-0.4771,-0.4741,-0.473,-0.4697,-0.4669,-0.4653,-0.4643,-0.4624,-0.4631,-0.4621,-0.4639,-0.4647,-0.4653,-0.4656,-0.4659,-0.4667,-0.4583,-0.4583,-0.4583,0,0,-0.495,-0.4918,-0.4915,-0.488,-0.4856,-0.4847,-0.4801,-0.4792,-0.4785,-0.4728,-0.472,-0.4696,-0.4662,-0.4663,-0.4661,-0.4643,-0.4677,-0.4657,-0.4662,-0.4661,-0.4663,-0.4671,-0.4678,-0.4585,-0.4584,-0.4584,0,0,-0.5,-0.4975,-0.4978,-0.4956,-0.4921,-0.4891,-0.4892,-0.4848,-0.483,-0.4821,-0.4779,-0.4769,-0.4741,-0.472,-0.4705,-0.4749,-0.4717,-0.4744,-0.4783,-0.4788,-0.4794,-0.48,-0.4817,-0.4823,-0.4747,-0.4747,-0.4747,0,-0.5042,-0.5026,-0.4983,-0.4978,-0.4964,-0.4913,-0.4916,-0.4896,-0.4858,-0.4849,-0.483,-0.4795,-0.4768,-0.4764,-0.4776,-0.4765,-0.4765,-0.4749,-0.4797,-0.4802,-0.4807,-0.4822,-0.4829,-0.475,-0.475,-0.475,-0.4749,0,-0.508,-0.507,-0.5076,-0.5041,-0.5028,-0.5027,-0.4984,-0.4975,-0.4948,-0.492,-0.4913,-0.4879,-0.4854,-0.4851,-0.4823,-0.4843,-0.4834,-0.4806,-0.4772,-0.4819,-0.4833,-0.4839,-0.4756,-0.4754,-0.4753,-0.4752,0,0,-0.5168,-0.5111,-0.5114,-0.5098,-0.5057,-0.5048,-0.5045,-0.5022,-0.5017,-0.4992,-0.4988,-0.4967,-0.4942,-0.4925,-0.4895,-0.4898,-0.4937,-0.487,-0.4869,-0.4885,-0.4959,-0.4981,-0.4989,-0.4916,-0.4917,-0.4918,-0.4963,0,-0.5212,-0.5204,-0.5166,-0.5169,-0.516,-0.5113,-0.511,-0.5085,-0.5059,-0.5047,-0.5018,-0.5004,-0.4972,-0.4962,-0.4963,-0.4932,-0.4952,-0.4928,-0.4913,-0.4913,-0.4924,-0.4995,-0.5018,-0.5062,-0.4968,-0.4968,-0.4969,0,-0.5262,-0.5242,-0.5245,-0.5206,-0.52,-0.5199,-0.5175,-0.5164,-0.5135,-0.5116,-0.5099,-0.5065,-0.506,-0.5028,-0.502,-0.5005,-0.4997,-0.4981,-0.4981,-0.4979,-0.4944,-0.4996,-0.5074,-0.5082,-0.4977,-0.4976,-0.4976,0,-0.5328,-0.5301,-0.53,-0.5288,-0.5242,-0.5242,-0.5223,-0.5192,-0.5181,-0.516,-0.5153,-0.5131,-0.512,-0.5104,-0.5066,-0.5046,-0.5063,-0.5028,-0.5048,-0.5049,-0.5054,-0.5054,-0.5133,-0.5047,-0.5047,-0.5047,-0.5047,0,-0.5381,-0.5385,-0.5329,-0.5329,-0.5332,-0.5288,-0.5293,-0.5269,-0.5242,-0.5236,-0.5194,-0.5189,-0.5138,-0.5128,-0.5098,-0.5097,-0.5092,-0.5076,-0.5069,-0.5081,-0.5083,-0.5075,-0.5071,-0.5048,-0.5048,-0.5048,-0.5047,0,-0.5455,-0.5418,-0.5414,-0.5371,-0.536,-0.5365,-0.5328,-0.5326,-0.5298,-0.5291,-0.5287,-0.5243,-0.5229,-0.5189,-0.5164,-0.5144,-0.5153,-0.5137,-0.5163,-0.5158,-0.5181,-0.518,-0.5258,-0.5267,-0.5175,-0.5176,-0.5176,0,-0.5492,-0.5494,-0.5453,-0.5446,-0.5429,-0.5419,-0.5408,-0.5365,-0.5355,-0.5323,-0.5325,-0.5308,-0.5292,-0.5272,-0.5237,-0.5219,-0.5203,-0.5232,-0.52,-0.5213,-0.5205,-0.5206,-0.5206,-0.5239,-0.524,-0.5241,-0.5242,0,-0.5562,-0.5544,-0.553,-0.5511,-0.5499,-0.5481,-0.5461,-0.5458,-0.541,-0.5401,-0.5387,-0.5375,-0.5351,-0.5335,-0.5311,-0.5291,-0.5259,-0.5253,-0.5256,-0.5269,-0.5285,-0.5278,-0.5183,-0.5251,-0.525,-0.5249,-0.5249,-0.5248,-0.5619,-0.562,-0.5591,-0.5578,-0.5558,-0.5541,-0.5537,-0.551,-0.5497,-0.5475,-0.545,-0.5439,-0.5411,-0.5376,-0.5358,-0.5349,-0.5332,-0.5337,-0.5339,-0.5341,-0.5348,-0.5286,-0.5345,-0.5344,-0.5344,-0.5344,-0.5343,0,-0.5688,-0.5668,-0.5656,-0.563,-0.562,-0.5591,-0.5568,-0.5561,-0.5552,-0.5529,-0.5515,-0.5499,-0.5484,-0.5449,-0.543,-0.543,-0.5415,-0.5427,-0.5427,-0.5423,-0.5363,-0.5362,-0.5439,-0.5439,-0.5439,-0.5439,-0.5439,-0.5439,-0.5723,-0.5723,-0.5702,-0.5692,-0.5671,-0.5661,-0.565,-0.5634,-0.5616,-0.5601,-0.5588,-0.5566,-0.5538,-0.5518,-0.5503,-0.5493,-0.5488,-0.5505,-0.5491,-0.5436,-0.5427,-0.5418,-0.5417,-0.5504,-0.5504,-0.5551,-0.5552,-0.5552]},{"header":{"parameterUnit":"m.s-1","parameterCategory":1,"la1":30.2991,"la2":30.254,"lo1":-89.0895,"lo2":-89.0444,"dy":0.0017,"dx":0.0017,"nx":28,"ny":28,"refTime":"2024-06-13T03:00:00:Z","depth":0,"parameterNumber":3,"parameterNumberName":"V-component_of_WINDS"},"data":[0,0,0,0,0,0,0,0,0,0,0,0,0,0,0,0,0,0,0,0,0,0,0,0,0,0,0,0,0,0,0,0,0,0,0,0,0,0,0,0,0,0,0,0,0,0,0,0,0,0,0,0,0,0,0,0,0,0,3.1476,3.1475,0,3.1454,3.1454,3.1454,3.1459,3.146,3.146,3.1461,3.1436,3.1435,3.1434,0,0,0,0,0,0,0,0,0,0,0,0,0,3.1517,3.1516,3.1476,3.1475,3.1475,3.1455,3.1454,3.1454,3.1459,3.146,3.146,3.1461,3.1436,3.1435,3.1434,0,0,0,0,0,0,0,0,0,0,0,0,0,3.1498,3.1516,3.1476,3.1475,3.1475,3.1455,3.1454,3.1454,3.1459,3.146,3.146,3.1461,3.1437,3.1435,3.1434,3.1411,0,0,3.1429,3.1428,0,0,0,0,0,0,0,0,3.1499,3.1496,3.1476,3.1475,3.1475,3.146,3.146,3.1439,3.1459,3.1465,3.1461,3.1461,3.1443,3.1441,3.1436,3.141,3.1409,3.1429,3.1428,3.1427,3.1427,0,0,0,0,0,0,0,3.15,3.1497,3.1467,3.1475,3.1475,3.1475,3.1473,3.1456,3.1451,3.1465,3.1465,3.1463,3.1443,3.1437,3.1435,3.1409,3.1429,3.1427,3.1426,3.1426,3.1361,3.136,0,0,0,0,0,0,3.1502,3.1498,3.1468,3.1467,3.1489,3.1474,3.1472,3.1464,3.1451,3.145,3.1462,3.1463,3.144,3.1437,3.1434,3.1405,3.1427,3.1426,3.1425,3.1362,3.1361,3.136,0,0,0,0,0,0,3.1503,3.1499,3.1469,3.1482,3.1479,3.1472,3.1464,3.1464,3.1458,3.1449,3.1448,3.1457,3.144,3.1437,3.1417,3.1405,3.1425,3.1423,3.1363,3.1361,3.136,3.1348,0,0,0,0,0,0,3.1504,3.15,3.1492,3.1482,3.1478,3.1452,3.1464,3.1463,3.1455,3.1456,3.1444,3.1443,3.144,3.1419,3.1415,3.1403,3.1422,3.1364,3.1362,3.1361,3.135,3.1347,3.1344,0,0,0,0,0,3.1506,3.1489,3.1492,3.1488,3.1468,3.1452,3.1449,3.1447,3.1454,3.1446,3.144,3.1443,3.1407,3.1417,3.1413,3.14,3.1364,3.1362,3.1361,3.1351,3.1347,3.1344,0,0,0,0,0,0,3.1497,3.1488,3.1491,3.1471,3.1462,3.1453,3.1442,3.1444,3.1432,3.1434,3.1431,3.1428,3.1407,3.1402,3.1413,3.1376,3.1386,3.1384,3.138,3.1377,3.1374,3.1375,3.1421,0,0,0,0,0,3.1494,3.1482,3.1474,3.1457,3.1453,3.1448,3.1441,3.144,3.1431,3.1427,3.142,3.1409,3.1395,3.1386,3.1373,3.1349,3.1345,3.1338,3.1336,3.1333,3.1331,3.1315,3.1311,3.1354,3.1354,3.1354,0,0,3.1485,3.1478,3.1471,3.1456,3.1449,3.1435,3.1445,3.1431,3.142,3.1424,3.1405,3.1399,3.1387,3.1364,3.1354,3.1359,3.1318,3.1331,3.133,3.1328,3.1313,3.1309,3.1305,3.1353,3.1353,3.1353,0,0,3.1462,3.1457,3.1441,3.1434,3.1424,3.1421,3.1417,3.1407,3.1403,3.1384,3.1386,3.1373,3.135,3.134,3.1332,3.1304,3.1306,3.13,3.1286,3.1271,3.1267,3.1264,3.1252,3.1248,3.1298,3.1298,3.1298,0,3.1452,3.1433,3.1433,3.1418,3.141,3.1414,3.1397,3.139,3.1375,3.1369,3.1375,3.1345,3.1337,3.1311,3.1304,3.1299,3.1292,3.1301,3.1268,3.1265,3.1262,3.125,3.1246,3.1297,3.1297,3.1297,3.1297,0,3.142,3.1407,3.1396,3.1382,3.1373,3.1357,3.1353,3.1344,3.1344,3.1339,3.1318,3.1309,3.1293,3.1287,3.1287,3.126,3.1263,3.1269,3.1279,3.1257,3.1246,3.1241,3.1296,3.1296,3.1296,3.1297,0,0,3.1391,3.1377,3.1373,3.1366,3.1354,3.1343,3.1326,3.1311,3.1302,3.1292,3.1276,3.1256,3.126,3.1252,3.125,3.1237,3.1213,3.1244,3.1244,3.1236,3.118,3.1174,3.1169,3.1214,3.1213,3.1213,3.118,0,3.1366,3.1338,3.1337,3.131,3.1296,3.1299,3.1285,3.1275,3.127,3.1257,3.1251,3.1236,3.1244,3.1238,3.1226,3.1218,3.1201,3.1221,3.1197,3.1197,3.1198,3.1163,3.1158,3.1127,3.1176,3.1175,3.1174,0,3.1332,3.1321,3.1293,3.1282,3.1276,3.1263,3.1248,3.1236,3.1224,3.1221,3.121,3.1211,3.1192,3.1204,3.1176,3.119,3.118,3.1175,3.1174,3.117,3.1183,3.1156,3.1118,3.1112,3.1168,3.1168,3.1169,0,3.1311,3.1289,3.1269,3.1263,3.125,3.124,3.1234,3.1223,3.1213,3.12,3.1193,3.1177,3.1168,3.1155,3.1151,3.116,3.1122,3.1134,3.1117,3.1117,3.1108,3.1108,3.1064,3.1105,3.1105,3.1105,3.1105,0,3.1281,3.1264,3.1259,3.1246,3.1226,3.1224,3.1204,3.1198,3.1188,3.1173,3.1175,3.116,3.1156,3.114,3.1136,3.1112,3.1109,3.1104,3.1103,3.1103,3.1103,3.1095,3.1096,3.1104,3.1104,3.1105,3.1105,0,3.1253,3.125,3.1228,3.1217,3.1214,3.1199,3.1188,3.1175,3.1171,3.1152,3.1147,3.1139,3.112,3.1115,3.1092,3.109,3.1061,3.1063,3.1065,3.1064,3.1046,3.1047,3.0994,3.0986,3.1034,3.1034,3.1034,0,3.1234,3.122,3.1208,3.1198,3.1191,3.1176,3.1166,3.1164,3.1153,3.1137,3.1126,3.1107,3.1092,3.1062,3.1053,3.1035,3.1035,3.1018,3.1032,3.1032,3.1032,3.1032,3.1029,3.1015,3.1014,3.1014,3.1013,0,3.1198,3.1197,3.1183,3.1168,3.1156,3.1144,3.1132,3.1124,3.112,3.1107,3.1088,3.1077,3.1053,3.1034,3.1016,3.1007,3.1008,3.1009,3.1004,3.1002,3.1003,3.0999,3.1055,3.101,3.101,3.101,3.1011,3.1011,3.1172,3.116,3.1148,3.1132,3.1123,3.1112,3.1098,3.1092,3.1076,3.1057,3.1057,3.1035,3.1022,3.0997,3.0988,3.097,3.0975,3.0968,3.0965,3.0963,3.096,3.1008,3.0967,3.0967,3.0967,3.0967,3.0967,0,3.1135,3.1128,3.1113,3.1096,3.1083,3.1087,3.1073,3.1061,3.1043,3.1031,3.1016,3.0993,3.0974,3.0963,3.0944,3.0931,3.0931,3.0926,3.0925,3.0923,3.0958,3.0964,3.0926,3.0926,3.0926,3.0926,3.0926,3.0926,3.1114,3.1091,3.1088,3.1061,3.1053,3.1033,3.1025,3.1013,3.1003,3.0977,3.0962,3.0956,3.0943,3.0922,3.0904,3.0901,3.0893,3.0887,3.0884,3.0917,3.0921,3.0925,3.093,3.0886,3.0886,3.085,3.0849,3.0849]}]]